Dewpoint
41 40 39 38 39 39 37 36 33 27 27 26 25 28 37 37 36 37 37 42 42 43 43 42 41 40 39 39 38 38 38 39 39 39 38 38 39 39
40 39 37 37 36 37 38 38 38 34 28 28 28 28 32 31 36 35 37 40 41 41 39 38 39 38 37 36 36 35 35 36 37 37 37 37 37 37
38 37 35 35 35 36 37 36 35 34 28 28 27 26 27 28 31 34 36 35 37 38 37 38 36 35 33 33 33 33 33 34 34 34 35 35 35 35
37 36 34 32 34 34 34 33 34 32 29 26 26 25 24 24 26 28 32 32 34 37 37 35 33 33 32 31 31 32 32 32 33 32 32 33 33 33
36 34 32 33 32 33 33 32 32 30 29 27 26 26 24 24 24 25 26 32 33 37 34 32 31 32 30 30 31 31 31 31 31 32 33 32 32 32
40 39 38 38 36 34 32 30 31 30 28 27 25 25 24 25 25 24 25 30 30 27 27 29 29 28 28 28 27 28 29 30 30 30 31 31 31 31
35 35 36 36 37 35 33 32 31 30 28 27 26 25 24 24 24 25 25 26 24 24 24 23 25 25 25 23 26 25 26 26 29 30 29 29 29 29
32 31 33 36 36 36 35 35 34 32 29 27 26 23 24 24 26 25 25 24 22 26 23 22 21 22 22 23 24 24 26 28 27 26 26 26 26 27
31 32 32 33 35 34 36 37 37 35 33 33 28 27 27 28 28 28 25 25 25 25 24 21 22 20 23 19 24 22 28 28 25 25 26 27 27 28
31 32 32 33 34 33 32 32 32 32 33 33 32 31 30 29 28 27 26 26 25 24 24 22 21 20 21 21 24 26 29 27 27 27 26 26 26 25
32 32 32 32 35 34 31 30 31 32 35 34 32 32 32 32 30 29 27 25 24 22 24 23 22 20 20 18 24 26 28 28 28 26 24 25 23 23
31 32 34 33 36 35 30 30 29 31 33 31 30 30 30 30 32 30 29 26 26 24 24 24 22 21 22 21 20 23 23 23 23 22 22 21 21 20
31 32 33 36 37 36 33 30 30 31 33 30 30 30 28 27 25 25 24 25 26 25 25 26 24 24 22 22 22 20 20 17 16 16 18 18 18 20
31 32 34 38 37 37 34 35 35 34 30 29 29 28 26 25 25 25 24 24 23 25 25 24 23 23 20 19 20 20 18 18 17 16 15 18 19 20
32 34 37 37 36 35 35 36 35 29 28 27 26 26 24 24 23 23 22 21 21 20 18 19 23 23 21 17 18 20 17 18 17 17 17 17 16 16
35 35 36 35 34 31 34 34 29 28 27 26 25 23 23 22 22 23 23 22 22 22 19 17 17 19 15 19 19 17 18 16 18 16 17 17 17 17
33 33 32 30 29 29 30 28 27 28 27 26 25 22 21 22 22 23 24 22 18 18 18 20 18 18 20 17 10 16 15 16 17 17 17 16 17 17
31 30 30 28 27 27 27 27 27 28 26 25 24 23 22 22 22 22 22 17 17 19 17 17 16 14 13 17 19 15 15 16 17 17 18 15 14 15
28 28 29 28 28 27 27 27 26 26 26 25 24 23 23 22 22 20 20 20 19 18 18 17 14 12 8 10 16 18 17 16 16 16 16 15 14 13
28 28 28 28 28 27 27 27 26 26 25 24 24 24 23 22 17 20 21 18 18 18 17 17 17 16 14 11 7 15 14 15 15 13 13 14 15 18
28 28 28 28 28 28 27 27 26 25 25 24 24 24 23 21 20 20 20 23 21 16 17 17 19 23 18 14 10 13 16 19 18 16 12 12 12 13
28 27 28 28 27 27 27 26 25 26 24 24 24 24 23 22 20 20 20 19 19 17 18 19 18 16 14 17 15 13 12 14 16 18 18 17 13 10
28 27 26 26 26 27 27 26 26 25 25 24 24 23 23 21 22 21 20 19 18 18 19 19 14 16 19 18 17 15 13 12 13 13 13 17 17 17
Lifted_Index
2 2 3 4 4 4 4 4 4 5 5 5 7 9 11 12 13 14 16 17 17 17 18 18 19 19 20 20 20 20 20 19 19 19 19 19 19 18
2 2 3 4 4 4 4 5 5 5 5 6 8 10 12 14 15 16 18 18 18 18 19 19 20 20 20 21 21 21 20 20 20 19 19 19 19 19
2 2 3 4 4 4 4 5 6 6 6 7 9 10 12 15 17 18 19 19 19 19 20 20 21 21 21 21 21 21 21 21 20 20 20 20 19 19
2 3 3 3 4 4 4 6 7 8 8 8 9 10 12 14 17 18 19 20 20 20 21 21 21 21 21 22 22 22 22 21 21 21 20 20 20 20
3 3 3 3 3 3 4 6 8 9 10 9 9 10 12 14 16 17 18 19 20 20 21 22 22 21 22 22 22 22 22 21 21 21 20 20 20 20
4 4 4 3 3 3 4 5 7 9 10 10 10 10 11 13 14 15 16 17 19 20 21 21 21 21 21 22 22 21 22 21 21 21 21 20 20 20
4 4 4 4 4 4 4 5 6 8 9 10 10 10 11 11 13 14 15 16 18 19 20 20 20 21 21 21 21 21 21 21 21 21 21 21 20 20
3 3 4 4 4 4 5 5 6 8 10 10 10 10 11 12 13 14 15 15 16 19 19 19 19 20 20 21 21 21 21 21 21 21 21 21 21 20
3 3 3 4 4 5 5 6 7 10 12 12 11 11 11 13 15 16 16 16 17 18 18 18 18 19 20 20 21 21 21 22 22 21 21 21 21 21
4 4 4 5 5 6 6 7 8 11 14 14 13 13 14 15 17 17 17 17 18 18 18 18 18 19 20 20 21 22 22 22 22 21 21 21 21 21
5 5 6 7 8 8 8 8 10 12 14 15 15 16 17 18 19 19 18 17 17 17 18 18 18 18 19 20 22 22 22 21 21 21 21 21 21 21
6 7 8 9 10 11 11 11 11 13 14 15 16 17 19 19 19 19 18 17 16 17 18 18 18 18 18 20 21 22 21 21 21 21 21 21 21 21
6 7 10 11 12 13 13 13 13 14 15 15 16 17 18 18 19 19 19 18 18 18 19 19 18 18 18 18 20 21 21 21 21 21 21 21 21 21
8 9 11 13 14 15 15 15 15 15 15 15 15 16 17 17 18 19 20 20 20 20 20 20 19 19 18 18 18 19 20 20 20 20 20 20 20 20
11 12 13 15 16 16 16 16 16 16 15 15 15 16 17 18 19 19 20 20 20 20 21 21 20 20 19 18 18 18 18 19 19 20 20 20 19 19
14 15 16 16 16 16 16 17 17 16 16 16 16 16 17 18 18 19 19 19 19 19 20 21 21 21 20 19 18 18 18 18 18 19 19 19 18 18
16 16 16 16 16 16 16 17 17 17 16 16 16 17 17 17 18 19 19 18 17 17 18 20 21 20 20 19 19 18 17 17 18 18 18 17 17 17
16 16 15 15 15 16 16 16 16 17 17 17 17 17 17 18 18 18 18 17 16 16 17 18 19 19 18 18 18 18 18 17 18 18 17 17 16 16
15 15 15 15 15 15 15 15 16 16 17 17 17 17 18 18 18 17 17 17 16 16 16 17 18 17 16 16 17 18 18 17 17 17 17 17 16 17
15 15 15 15 15 15 15 15 16 16 17 17 17 17 17 17 17 16 16 16 15 15 16 16 17 17 16 16 16 17 18 18 17 17 17 16 16 17
15 15 15 15 15 15 15 16 16 16 17 17 17 17 16 16 16 16 16 16 16 15 15 16 17 17 18 17 16 16 17 18 18 17 17 16 16 16
14 14 14 15 15 15 15 16 16 16 16 16 16 16 16 15 15 15 16 16 16 16 16 16 17 17 18 17 16 16 17 17 17 17 17 17 16 15
14 14 14 14 15 15 15 15 15 15 15 15 15 15 15 15 15 15 15 15 15 16 16 16 16 17 17 17 16 16 16 16 16 16 17 17 17 16